Вернуться в каталог

STARLINK-33847

АктивенСвязьVLEO
NORAD 63685·PAYLOAD·🇺🇸 United States

Запущен Apr 28, 2025 с Cape Canaveral Space Force Station

Loading…

Ближайшие Пролёты (ближайшие 24 часа)

TLE

СвежийSource: CelesTrak SupGP

Эпоха: Sep 14, 2026, 21:08 UTC

1 63685C 25085X   26257.88104167  .00059346  00000+0  21494-2 0  2570
2 63685  43.0024  42.4871 0001703 273.9029  97.2107 15.27550462    16

Отслеживайте STARLINK-33847 в реальном времени с AllMySat

Download on the App Store